Beckley, WV

2:28 PM EDT on March 29, 2017 (GMT -0400)
Raleigh County Memorial

Weather History for KBKW - July, 2013

Change the Weather History Date:

Thursday, July 18, 2013

  Actual Average Record
Temperature  
Mean Temperature 78 °F 71 °F  
Max Temperature 87 °F 80 °F 92 °F (1902)
Min Temperature 69 °F 62 °F 47 °F (1976)
Degree Days  
Heating Degree Days 0 0  
Month to date heating degree days 0 0  
Since 1 June heating degree days 7 39  
Since 1 July heating degree days 0 0  
Cooling Degree Days 13 6  
Month to date cooling degree days 146 108  
Year to date cooling degree days 338 260  
Since 1 June cooling degree days 271 219  
Growing Degree Days 28 (Base 50)    
Moisture  
Dew Point 71 °F    
Average Humidity 79    
Maximum Humidity 100    
Minimum Humidity 57    
Precipitation  
Precipitation 0.00 in 0.16 in 1.85 in (1936)
Month to date precipitation 2.34 2.87  
Year to date precipitation 22.54 24.03  
Snow  
Snow 0.00 in - - ()
Month to date snowfall 0.0  
Since 1 September snowfall 72.0  
Snow Depth 0.00 in    
Sea Level Pressure  
Sea Level Pressure 30.20 in    
Wind  
Wind Speed 2 mph (South)    
Max Wind Speed 6 mph    
Max Gust Speed 13 mph    
Visibility 4 miles    
Events Fog    
T = Trace of Precipitation, MM = Missing Value Source: NWS Daily Summary

Daily Weather History Graph

Daily Weather History Graph

Search for Another Location

Airport or City:

Trip Planner

Search our weather history database for the weather conditions in past years. The results will help you decide how hot, cold, wet, or windy it might be!

Date:

Astronomy

Jul. 18, 2013 Rise Set
Actual Time 6:16 AM EDT 8:44 PM EDT
Civil Twilight 5:46 AM EDT 9:14 PM EDT
Nautical Twilight 5:09 AM EDT 9:51 PM EDT
Astronomical Twilight 4:27 AM EDT 10:32 PM EDT
Moon 4:40 PM EDT (7/18) 2:05 AM EDT (7/18)
Length of Visible Light 15h 27m
Length of Day
14h 27m
Waxing Gibbous, 77% of the Moon is Illuminated
Jul 18
Waxing Gibbous
Jul 22
Full
Jul 29
Last Quarter
Aug 6
New
Aug 14
First Quarter

Hourly Weather History & Observations

Time (EDT) Temp. Heat Index Dew Point Humidity Pressure Visibility Wind Dir Wind Speed Gust Speed Precip Events Conditions
12:14 AM 71.6 °F - 71.6 °F 100% 30.32 in 4.0 mi Calm Calm - N/A   Mostly Cloudy
12:51 AM 72.0 °F - 71.1 °F 97% 30.19 in 4.0 mi Calm Calm - N/A   Mostly Cloudy
1:36 AM 69.8 °F - 69.8 °F 100% 30.30 in 2.5 mi Calm Calm - N/A   Partly Cloudy
1:51 AM 70.0 °F - 70.0 °F 100% 30.18 in 3.0 mi Calm Calm - N/A   Partly Cloudy
2:08 AM 69.8 °F - 69.8 °F 100% 30.30 in 1.8 mi Calm Calm - N/A   Scattered Clouds
2:18 AM 69.8 °F - 69.8 °F 100% 30.30 in 3.0 mi Calm Calm - N/A   Mostly Cloudy
2:51 AM 71.1 °F - 70.0 °F 96% 30.17 in 4.0 mi Calm Calm - N/A   Mostly Cloudy
3:15 AM 69.8 °F - 69.8 °F 100% 30.29 in 3.0 mi SSW 3.5 mph - N/A   Mostly Cloudy
3:24 AM 69.8 °F - 69.8 °F 100% 30.28 in 3.0 mi SW 3.5 mph - N/A   Mostly Cloudy
3:40 AM 69.8 °F - 69.8 °F 100% 30.29 in 1.8 mi SSW 3.5 mph - N/A   Overcast
3:51 AM 70.0 °F - 70.0 °F 100% 30.17 in 0.5 mi Calm Calm - N/A Fog Fog
4:03 AM 69.8 °F - 69.8 °F 100% 30.28 in 0.2 mi Calm Calm - N/A Fog Fog
4:26 AM 69.8 °F - 69.8 °F 100% 30.27 in 0.2 mi Calm Calm - N/A Fog Fog
4:51 AM 69.1 °F - 69.1 °F 100% 30.16 in 0.2 mi Calm Calm - N/A Fog Fog
5:51 AM 69.1 °F - 69.1 °F 100% 30.17 in 0.2 mi SSW 3.5 mph - N/A Fog Fog
6:51 AM 69.1 °F - 69.1 °F 100% 30.17 in 0.2 mi Calm Calm - N/A Fog Fog
7:07 AM 69.8 °F - 69.8 °F 100% 30.28 in 0.2 mi Calm Calm - N/A Fog Fog
7:32 AM 69.8 °F - 69.8 °F 100% 30.28 in 0.5 mi Calm Calm - N/A Fog Fog
7:48 AM 69.8 °F - 69.8 °F 100% 30.29 in 1.2 mi Calm Calm - N/A   Overcast
7:51 AM 71.1 °F - 71.1 °F 100% 30.18 in 1.5 mi Calm Calm - N/A   Overcast
8:32 AM 71.6 °F - 71.6 °F 100% 30.30 in 0.5 mi Calm Calm - N/A Fog Fog
8:51 AM 72.0 °F - 71.1 °F 97% 30.19 in 1.0 mi North 3.5 mph - N/A   Overcast
9:18 AM 73.4 °F - 71.6 °F 94% 30.30 in 3.0 mi Calm Calm - N/A   Overcast
9:27 AM 73.4 °F - 71.6 °F 94% 30.30 in 4.0 mi NNE 4.6 mph - N/A   Overcast
9:51 AM 75.9 °F - 72.0 °F 87% 30.19 in 4.0 mi NE 3.5 mph - N/A   Mostly Cloudy
10:37 AM 75.2 °F - 71.6 °F 89% 30.30 in 6.0 mi Variable 5.8 mph - N/A   Haze
10:51 AM 77.0 °F - 71.1 °F 82% 30.19 in 6.0 mi Variable 4.6 mph - N/A   Haze
11:17 AM 78.8 °F - 71.6 °F 78% 30.30 in 6.0 mi Calm Calm - N/A   Haze
11:51 AM 81.0 °F 85.8 °F 73.0 °F 77% 30.17 in 6.0 mi Calm Calm - N/A   Haze
12:51 PM 82.9 °F 87.5 °F 71.1 °F 67% 30.16 in 10.0 mi West 3.5 mph - N/A   Scattered Clouds
1:51 PM 82.9 °F 87.5 °F 71.1 °F 67% 30.15 in 10.0 mi ESE 4.6 mph - N/A   Scattered Clouds
2:51 PM 84.0 °F 89.0 °F 71.1 °F 65% 30.12 in 10.0 mi Variable 3.5 mph - N/A   Clear
3:51 PM 86.0 °F 90.7 °F 70.0 °F 59% 30.10 in 10.0 mi Variable 5.8 mph - N/A   Clear
4:51 PM 86.0 °F 91.5 °F 71.1 °F 61% 30.08 in 10.0 mi NNE 4.6 mph - N/A   Clear
5:51 PM 81.0 °F 84.4 °F 70.0 °F 69% 30.09 in 10.0 mi NE 4.6 mph - N/A   Clear
6:51 PM 80.1 °F 83.8 °F 72.0 °F 76% 30.09 in - West 3.5 mph - N/A   Unknown
7:51 PM 82.0 °F 86.3 °F 71.1 °F 69% 30.08 in 9.0 mi Calm Calm - N/A   Clear
8:51 PM 78.1 °F - 73.0 °F 84% 30.08 in 7.0 mi Calm Calm - N/A   Clear
9:51 PM 75.0 °F - 72.0 °F 90% 30.10 in 6.0 mi SSE 4.6 mph - N/A   Clear
10:51 PM 75.0 °F - 73.0 °F 94% 30.10 in 5.0 mi Calm Calm - N/A   Clear
11:51 PM 73.9 °F - 72.0 °F 93% 30.09 in 5.0 mi SSE 3.5 mph - N/A   Clear